Dewpoint
68 67 67 67 67 66 66 65 64 64 64 64 63 64 64 65 66 67 67 67 68 68 68 68 67 67 64 66 66 64 64 65 65 64 65 64 62 62 61 61 62 60
68 68 67 67 67 67 66 66 65 66 66 66 66 65 66 65 66 66 67 67 67 67 68 67 65 65 65 65 65 64 63 64 64 63 64 64 62 62 62 62 62 62
69 68 68 67 66 67 67 68 67 67 67 68 67 67 66 66 66 66 66 67 67 68 67 66 65 64 65 64 65 64 63 63 63 63 63 62 61 61 62 62 62 62
68 68 67 67 66 66 67 67 67 67 68 67 66 66 66 66 65 65 67 67 67 67 67 65 65 64 63 63 64 63 62 62 62 62 61 61 61 61 61 61 61 61
67 67 68 67 66 66 67 66 67 67 67 67 67 66 66 67 66 65 67 67 67 66 66 65 65 64 64 63 63 62 62 61 61 61 59 59 60 60 60 60 60 60
67 66 66 66 67 66 66 66 66 66 67 68 67 66 67 67 66 65 66 66 65 65 65 65 64 64 63 62 63 62 61 61 60 59 58 57 57 58 58 58 58 58
67 67 67 65 66 66 66 66 67 67 66 68 67 67 67 67 66 64 64 65 64 64 63 64 63 63 63 62 61 60 60 60 59 58 57 57 57 57 57 57 56 55
67 68 67 66 66 66 66 66 66 66 67 67 68 67 66 65 65 65 64 64 63 63 63 62 62 62 61 61 60 60 60 60 59 57 56 56 56 55 55 54 56 53
67 68 66 67 66 66 66 65 66 66 66 66 66 67 66 65 65 64 64 64 63 63 62 62 62 61 61 61 60 59 58 59 58 57 56 55 55 54 52 53 53 53
67 67 67 66 66 66 66 67 66 66 66 66 65 66 65 66 65 64 64 64 63 62 62 62 61 61 61 60 59 58 58 57 57 56 55 55 54 52 50 51 51 51
67 67 67 66 66 66 66 67 66 66 66 64 65 65 65 65 64 63 63 63 63 62 61 61 60 60 59 59 59 59 58 57 56 54 55 54 53 51 51 50 50 50
67 67 67 66 66 66 66 66 66 66 65 65 63 64 64 64 64 63 62 61 61 61 61 60 60 59 58 57 57 57 57 57 56 54 53 51 50 50 49 49 49 48
66 67 66 66 66 66 67 66 66 66 65 64 64 64 64 63 63 62 62 61 61 61 61 61 60 59 58 57 56 56 56 55 55 53 52 51 49 49 48 48 48 48
65 66 67 66 66 66 66 65 65 65 65 65 64 64 63 62 61 62 62 61 61 61 61 60 60 58 58 56 55 55 56 55 54 53 51 50 51 48 49 48 48 48
65 67 67 66 66 66 66 65 65 65 65 64 64 64 64 62 61 62 61 61 60 61 60 59 59 59 57 56 56 55 55 54 53 51 51 50 49 48 49 48 47 48
65 66 66 66 66 65 65 65 65 65 65 64 64 63 63 63 61 62 61 60 60 58 59 59 59 59 55 51 52 55 55 53 53 52 50 49 48 48 49 48 47 48
65 66 65 65 65 65 65 65 64 65 65 64 64 64 63 63 62 61 61 60 58 58 58 58 58 57 47 45 45 48 53 54 53 52 51 49 48 48 48 48 47 46
65 65 65 65 65 64 64 64 64 64 64 64 64 64 63 63 62 61 61 60 59 58 58 58 59 51 44 44 44 44 48 54 54 52 51 49 47 47 47 47 47 47
65 65 64 64 64 64 64 64 64 64 64 64 64 64 64 63 61 62 60 59 58 58 58 57 58 43 43 43 43 43 44 50 52 52 50 49 48 46 45 45 46 46
64 64 64 64 64 64 64 63 63 63 64 64 64 63 63 62 62 61 60 58 58 58 57 57 57 44 42 42 42 42 42 45 52 51 50 48 47 46 46 46 46 45
64 64 64 64 63 64 64 63 64 64 64 63 63 62 62 62 62 61 60 59 59 58 58 58 58 42 41 41 41 41 41 43 53 51 49 48 48 47 47 47 46 46
64 64 64 63 63 63 63 63 64 64 64 64 63 63 62 62 61 61 59 59 58 57 57 57 58 41 41 40 40 40 41 49 51 51 49 47 47 46 47 46 46 45
64 65 64 63 63 63 63 63 63 64 64 63 62 62 62 61 61 60 59 58 57 57 57 57 55 43 40 40 40 39 42 48 51 49 47 47 47 47 46 45 46 44
64 63 63 63 63 62 63 63 63 64 63 63 62 62 61 61 60 60 59 58 57 57 57 57 55 45 40 40 39 39 44 48 49 48 47 47 47 47 45 44 44 47
64 64 63 63 63 63 63 63 63 63 63 63 62 62 62 61 60 58 58 58 58 58 55 57 56 47 40 39 39 39 44 49 48 45 46 47 45 45 45 44 45 49
64 64 64 63 63 63 63 63 63 63 63 63 62 61 61 61 60 58 57 57 57 57 57 57 57 50 43 39 39 39 41 48 49 45 46 46 44 43 43 45 46 48